(140529) = 2001 TG176

Discovered at Socorro on 2001-10-14 by LINEAR.

Orbit

Orbit type: Main Belt

Note: WebGL enabled browser required.

epoch2023-09-13.0
epoch JD2460200.5
perihelion date2023-01-24.68614
perihelion JD2459969.18614
argument of perihelion (°)96.93940
ascending node (°)221.98515
inclination (°)2.39761
eccentricity0.1392871
perihelion distance (AU)2.6772787
Tisserand w.r.t. Jupiter3.2
ΔV w.r.t. Earth (km/sec)10.3
semimajor axis (AU)3.1105363
mean anomaly (°)41.55781
mean daily motion (°/day)0.17965980
aphelion distance (AU)3.544
period (years)5.49
P-vector [x]0.75326360
P-vector [y]-0.61875982
P-vector [z]-0.22300277
Q-vector [x]0.65712314
Q-vector [y]0.69357756
Q-vector [z]0.29519374
absolute magnitude15.98
phase slope0.15
uncertainty0
referenceMPEC 2024-A55
observations used375
oppositions16
arc length (days)8142
first opposition used2001
last opposition used2024
residual rms (arc-secs)0.77
perturbers coarse indicatorM-v
perturbers precise indicator003Ek
first observation date used2001-09-20.0
last observation date used2024-01-05.0
computer nameMPCLINUX
Minimum Orbit Intersection Distances (in AU)
for orbit epoch: 2460200.5, reference: E2023-XF2
Mercury2.25776
Venus1.95349
Earth1.66498
Mars1.29487
Jupiter1.74905
Saturn5.60513
Uranus14.9407
Neptune26.6839

Observations

380 total observations over interval: 2001 09 20.32447 – 2024 01 05.264881
These data are available for download (format description).

Date (UT) J2000 RA J2000 Dec Magn Location Ref
2001 09 20.32447 01 10 18.69 +09 29 31.1 20.0   704 – Lincoln Laboratory ETS, New Mexico MPS 44340
2001 09 20.37095 01 10 16.90 +09 29 18.4 20.1   704 – Lincoln Laboratory ETS, New Mexico MPS 44340
2001 09 20.38515 01 10 16.32 +09 29 15.2 20.4   704 – Lincoln Laboratory ETS, New Mexico MPS 44340
2001 09 21.34619 01 09 39.53 +09 25 04.7 20.3 V 333 – Desert Eagle Observatory MPS 44340
2001 09 21.36095 01 09 38.93 +09 25 00.3 20.5 V 333 – Desert Eagle Observatory MPS 44340
2001 09 21.37569 01 09 38.34 +09 24 56.5 20.6 V 333 – Desert Eagle Observatory MPS 44340
2001 09 23.33827 01 08 20.72 +09 16 08.1 19.4   704 – Lincoln Laboratory ETS, New Mexico MPS 44340
2001 09 23.35248 01 08 20.20 +09 16 03.6 20.2   704 – Lincoln Laboratory ETS, New Mexico MPS 44340
2001 09 23.38092 01 08 18.96 +09 15 55.6 20.2   704 – Lincoln Laboratory ETS, New Mexico MPS 44340
2001 09 23.39580 01 08 18.35 +09 15 51.0 19.9   704 – Lincoln Laboratory ETS, New Mexico MPS 44340
2001 10 11.37310 00 55 08.66 +07 42 31.5 19.6   644 – Palomar Mountain/NEAT MPS 44340
2001 10 11.39431 00 55 07.67 +07 42 24.2 19.8   644 – Palomar Mountain/NEAT MPS 44340
2001 10 11.41560 00 55 06.69 +07 42 17.2 20.4   644 – Palomar Mountain/NEAT MPS 44340
2001 10 14.24279 00 53 01.13 +07 26 46.1 19.7   704 – Lincoln Laboratory ETS, New Mexico MPS 40959
2001 10 14.27416 00 52 59.85 +07 26 36.4 20.5   704 – Lincoln Laboratory ETS, New Mexico MPS 40959
2001 10 14.29035 00 52 59.11 +07 26 31.9 20.3   704 – Lincoln Laboratory ETS, New Mexico MPS 40959
2001 10 14.30601 00 52 58.40 +07 26 26.4 20.0   704 – Lincoln Laboratory ETS, New Mexico MPS 40959
2001 10 15.24470 00 52 17.38 +07 21 18.4 20.1 V 691 – Steward Observatory, Kitt Peak-Spacewatch MPS 44340
2001 10 15.26779 00 52 16.33 +07 21 10.8 20.2 V 691 – Steward Observatory, Kitt Peak-Spacewatch MPS 44340
2001 10 15.29081 00 52 15.30 +07 21 03.4 20.3 V 691 – Steward Observatory, Kitt Peak-Spacewatch MPS 44340
2001 10 21.17391 00 48 08.26 +06 49 39.2 19.2   704 – Lincoln Laboratory ETS, New Mexico MPS 40959
2001 10 21.19028 00 48 07.59 +06 49 34.1 19.9   704 – Lincoln Laboratory ETS, New Mexico MPS 40959
2001 10 21.20664 00 48 06.83 +06 49 28.5 20.1   704 – Lincoln Laboratory ETS, New Mexico MPS 40959
2001 10 21.23941 00 48 05.52 +06 49 19.1 19.9   704 – Lincoln Laboratory ETS, New Mexico MPS 40959
2004 02 22.35752 10 12 23.96 +07 44 35.9 21.3 V 691 – Steward Observatory, Kitt Peak-Spacewatch MPS 139259
2004 02 22.38530 10 12 22.67 +07 44 43.0 21.9 V 691 – Steward Observatory, Kitt Peak-Spacewatch MPS 139259
2004 02 22.41294 10 12 21.42 +07 44 50.8 21.6 V 691 – Steward Observatory, Kitt Peak-Spacewatch MPS 139259
2005 04 11.36159 14 44 36.63 -16 19 21.9 18.9 R G96 – Mt. Lemmon Survey MPS 139259
2005 04 11.36844 14 44 36.38 -16 19 20.7 20.2 R G96 – Mt. Lemmon Survey MPS 139259
2005 04 11.37527 14 44 36.09 -16 19 19.3 20.5 R G96 – Mt. Lemmon Survey MPS 139259
2005 04 11.38204 14 44 35.85 -16 19 17.6 20.0 R G96 – Mt. Lemmon Survey MPS 139259
2005 05 07.27698 14 25 27.88 -14 31 32.7 19.4 R G96 – Mt. Lemmon Survey MPS 139259
2005 05 07.28361 14 25 27.55 -14 31 30.8 19.2 R G96 – Mt. Lemmon Survey MPS 139259
2005 05 07.29042 14 25 27.24 -14 31 28.8 19.6 R G96 – Mt. Lemmon Survey MPS 139259
2005 05 07.29704 14 25 26.90 -14 31 26.9 20.0 R G96 – Mt. Lemmon Survey MPS 139259
2006 05 02.46000 21 23 32.46 -12 48 46.9 20.9 V G96 – Mt. Lemmon Survey MPS 170756
2006 05 02.46220 21 23 32.60 -12 48 46.6 21.4 V G96 – Mt. Lemmon Survey MPS 170756
2006 05 02.46459 21 23 32.74 -12 48 45.6 20.7 V G96 – Mt. Lemmon Survey MPS 170756
2006 05 02.46683 21 23 32.89 -12 48 44.7 21.4 V G96 – Mt. Lemmon Survey MPS 170756
2006 08 14.34089 21 35 06.61 -10 22 06.1 18.9 R 644 – Palomar Mountain/NEAT MPS 176884
2006 08 14.36212 21 35 05.59 -10 22 11.4 19.2 R 644 – Palomar Mountain/NEAT MPS 176884
2006 08 14.38467 21 35 04.53 -10 22 16.4 19.2 R 644 – Palomar Mountain/NEAT MPS 176884
2006 08 19.25512 21 31 23.31 -10 41 52.2 19.2 R 699 – Lowell Observatory-LONEOS MPS 175962
2006 08 19.27335 21 31 22.52 -10 41 55.5   699 – Lowell Observatory-LONEOS MPS 175962
2006 08 19.29160 21 31 21.60 -10 42 01.6   699 – Lowell Observatory-LONEOS MPS 175962
2006 08 19.32922 21 31 19.97 -10 42 08.1   699 – Lowell Observatory-LONEOS MPS 175962
2006 08 21.22814 21 29 55.10 -10 49 53.2 19.4 R 644 – Palomar Mountain/NEAT MPS 175962
2006 08 21.23052 21 29 54.96 -10 49 53.9 19.1 R 644 – Palomar Mountain/NEAT MPS 175962
2006 08 21.24851 21 29 54.14 -10 49 58.3 19.4 R 644 – Palomar Mountain/NEAT MPS 175962
2006 08 21.25089 21 29 54.02 -10 49 58.9 19.0 R 644 – Palomar Mountain/NEAT MPS 175962
2006 08 21.26884 21 29 53.21 -10 50 03.2 19.1 R 644 – Palomar Mountain/NEAT MPS 175962
2006 08 21.27123 21 29 53.11 -10 50 04.0 19.2 R 644 – Palomar Mountain/NEAT MPS 175962
2006 11 17.07293 21 39 09.86 -11 43 59.2 20.8 V G96 – Mt. Lemmon Survey MPS 188426
2006 11 17.07947 21 39 10.29 -11 43 57.3 21.1 V G96 – Mt. Lemmon Survey MPS 188426
2006 11 17.08608 21 39 10.62 -11 43 55.5 21.2 V G96 – Mt. Lemmon Survey MPS 188426
2006 11 17.09280 21 39 11.05 -11 43 53.7 21.0 V G96 – Mt. Lemmon Survey MPS 188426
2007 10 17.42338 04 12 42.33 +20 35 30.8 19.5 V G96 – Mt. Lemmon Survey MPS 222254
2007 10 17.42992 04 12 42.22 +20 35 29.6 19.7 V G96 – Mt. Lemmon Survey MPS 222254
2007 10 17.43646 04 12 41.97 +20 35 29.4 19.9 V G96 – Mt. Lemmon Survey MPS 222254
2007 10 17.44308 04 12 41.79 +20 35 29.2 20.6 V G96 – Mt. Lemmon Survey MPS 222254
2007 10 30.36430 04 05 40.11 +20 07 20.7 21.0 V 691 – Steward Observatory, Kitt Peak-Spacewatch MPS 224475
2007 10 30.38195 04 05 39.37 +20 07 17.8 20.6 V 691 – Steward Observatory, Kitt Peak-Spacewatch MPS 224475
2007 10 30.39959 04 05 38.62 +20 07 15.0 20.6 V 691 – Steward Observatory, Kitt Peak-Spacewatch MPS 224475
2007 11 03.31150 04 02 54.52 +19 56 49.9 20.4 V 691 – Steward Observatory, Kitt Peak-Spacewatch MPS 226504
2007 11 03.32917 04 02 53.70 +19 56 46.4 20.4 V 691 – Steward Observatory, Kitt Peak-Spacewatch MPS 226504
2007 11 03.34685 04 02 52.84 +19 56 43.6 20.2 V 691 – Steward Observatory, Kitt Peak-Spacewatch MPS 226504
2007 12 04.26324 03 37 37.23 +18 19 25.7 20.6 V G96 – Mt. Lemmon Survey MPS 230788
2007 12 04.26993 03 37 36.91 +18 19 24.5 20.3 V G96 – Mt. Lemmon Survey MPS 230788
2007 12 04.27679 03 37 36.58 +18 19 23.4 20.5 V G96 – Mt. Lemmon Survey MPS 230788
2007 12 04.28347 03 37 36.26 +18 19 22.0 20.1 V G96 – Mt. Lemmon Survey MPS 230788
2007 12 05.28842 03 36 50.49 +18 16 19.9 20.9   704 – Lincoln Laboratory ETS, New Mexico MPS 230788
2008 12 30.29216 08 39 55.76 +15 08 19.8 21.6 V G96 – Mt. Lemmon Survey MPS 271536
2008 12 30.30111 08 39 55.44 +15 08 20.1 20.9 V G96 – Mt. Lemmon Survey MPS 271536
2008 12 30.31007 08 39 55.08 +15 08 20.7 21.7 V G96 – Mt. Lemmon Survey MPS 271536
2008 12 30.32143 08 39 54.64 +15 08 22.8 22.7 V G96 – Mt. Lemmon Survey MPS 271536
2008 12 30.40104 08 39 51.65 +15 08 30.2 21.0 V 691 – Steward Observatory, Kitt Peak-Spacewatch MPS 271536
2008 12 30.41916 08 39 51.00 +15 08 32.1 20.9 V 691 – Steward Observatory, Kitt Peak-Spacewatch MPS 271536
2008 12 30.43783 08 39 50.26 +15 08 33.8 21.1 V 691 – Steward Observatory, Kitt Peak-Spacewatch MPS 271536
2010 02 24.535448 12 31 40.749 -05 48 22.26 21.11 i F51 – Pan-STARRS 1, Haleakala MPS 320391
2010 02 24.544985 12 31 40.474 -05 48 20.74 21.09 i F51 – Pan-STARRS 1, Haleakala MPS 320391
2010 04 09.28811 12 02 52.65 -02 29 09.6 20.6 V G96 – Mt. Lemmon Survey MPS 321914
2010 04 09.29604 12 02 52.36 -02 29 07.6 20.6 V G96 – Mt. Lemmon Survey MPS 321914
2010 04 09.30398 12 02 52.00 -02 29 05.2 20.8 V G96 – Mt. Lemmon Survey MPS 321914
2010 04 09.31193 12 02 51.72 -02 29 02.7 21.0 V G96 – Mt. Lemmon Survey MPS 321914
2010 06 14.308513 11 55 29.39 -00 44 43.7   C51 – WISE MPS 334477
2010 06 14.308640 11 55 29.29 -00 44 45.0   C51 – WISE MPS 334477
2010 06 14.44082 11 55 33.02 -00 45 02.4   C51 – WISE MPS 334477
2010 06 14.573120 11 55 36.86 -00 45 20.1   C51 – WISE MPS 334477
2010 06 14.705424 11 55 40.64 -00 45 39.2   C51 – WISE MPS 334477
2010 06 14.771639 11 55 42.68 -00 45 48.2   C51 – WISE MPS 334477
2010 06 14.837728 11 55 44.53 -00 45 57.3   C51 – WISE MPS 334477
2010 06 14.903943 11 55 46.45 -00 46 06.8   C51 – WISE MPS 334477
2010 06 14.970031 11 55 48.39 -00 46 17.5   C51 – WISE MPS 334477
2010 06 15.036248 11 55 50.28 -00 46 27.1   C51 – WISE MPS 334477
2010 06 15.168551 11 55 54.16 -00 46 46.3   C51 – WISE MPS 334477
2010 06 15.300854 11 55 58.03 -00 47 04.3   C51 – WISE MPS 334477
